Timeline UpdatesTrip UpdatesNews PostsPvt Posts♥♥Travel TipsAdmin PostsConv PostsFollowed PostsChat RequestsBlog PostsPNR Posts

Disclaimer
Search
 
 
Thu Oct 23, 2014 22:40:50 ISTHomeTrainsΣChainsAtlasPNRForumGalleryNewsFAQTripsMembersLoginFeedback
No Recent News for this Train
Other Trains in the News **new
Latest...
.
Tue Feb 04, 2014 (11:44PM)
⇐ Return Journey: Train# 59049

59050/Viramgam Valsad Passenger (UnReserved)

Time-Table HAS CHANGED.
Oct 02 (9:31AM)
Change Departure Station:
Change Arrival Station:
Post a Train Travel TipPost a Train Travel Tip **new
Post a Comment/Question/Picture/VideoPost a Comment/Question/Picture/Video
Pantry/Catering
✕ NO Pantry Car
✕ NO Catering
RSA - Rake Sharing
Rake/Coach Composition
LOCO-SLR-GEN*7-FC*GEN*8-SLR
Loco
BRC WAG 5 HA
News    PNR    Forum    Time-Table    Availability    Fare Chart    Map    Arr/Dep History    Trips    Gallery    ΣChains    X/O    Timeline    
Travel Time: 11h 53m    52 halts    Distance: 316 km    Avg Speed: 26 km/hr
Type: Passenger
Zone: WR/Western
Departs @ 07:30 (Avg 1m late)
Platform# ???
SMTWTFS
Viramgam Junction/VG 
Arrives @ 19:23 (Avg 21m late)
Platform# 3
SMTWTFS
Maroli/MRL 

52 halts. 65 intermediate Stations between Viramgam Junction and Maroli

Show ALL intermediate Stations  Show Old Time-Table

#TrkCodeStation NameX/OArrivesAvgDepartsAvgHaltPFDay#KmSpeedElevZoneAddress
1|==|VGViramgam Junction (5)»  -07:30+1--10.05329mWRViramgam, Gujarat
2|==|JKAJakhvadaX  07:43 07:44+407:44 07:46+41 2m--112.49231mWRState Highway 17, Gujarat
3|==|VCNVirochannagarX  07:49 07:51-07:50 07:52-1m--120.03433mWRState Highway 17, Gujarat
4|==|CEChharodiX  08:01 08:03+408:02 08:05+41 2m--126.36429mWRSH 17, Gujarat
5|==|SAUSanandX  08:19 08:15+408:20 08:17+41 2m--137.06340mWRSanand, Gujarat
6|==|ABDAmbli RoadX  08:40 08:28+508:41 08:30+61 2m--148.65750mWRAhmedabad, Gujarat
7|==/CLDYChandlodiyaX  08:49 08:36+908:50 08:38+91 2m--154.34259mWRAhmedabad, Gujarat
8/==/SBTSabarmati Junction (3) new halt!!  08:46+1308:48+182m--159.9952mWRAhmedabad, Gujarat
9/==/ADIAhmedabad Junction (12)XO  09:25+710:15+250m5165.31651mWRAhmedabad, Gujarat
10/==/MANManinagar (2)  10:26 10:27+010:27 10:29+01 2m1168.54850mWRAhmadabad, Gujarat
11/==/VTAVatva (4)X  10:34 10:35+210:35 10:37+31 2m--173.31849mWRDist. Ahmedabad 382445, Gujarat
12/==/GERGeratpur (2)  10:54 10:55+210:55 10:57+31 2m--178.64044mWRAhmadabad, Gujarat
13/==/BJDBarejadi Nandej (3)XO  11:01 11:02+311:02 11:04+31 2m--182.03742mWRBareja-Barejadi Rd, Gujarat
14/==/KANJKanij (3)  11:10 11:11+411:11 11:13+71 2m--186.31939mWRBareja-Barejadi Rd, Gujarat
15/==/NEPNenpur (2)  11:21 11:22-11:22 11:24-1 2m--189.25035mWRState Highway 3, Gujarat
16/==/MHDMahemdavad Kheda Road (4)  11:28 11:29+311:29 11:31+51 2m--193.35537mWRMahemdavad, Gujarat
17/==/GTEGothaj (2)  11:39 11:40+711:40 11:42+91 2m--1101.76232mWRState Highway 3, Gujarat
18/==/NDNadiad Junction (4)X  11:51+1111:53+112m11110.94737mWRNadiad, Gujarat
19/==/UTDUtarsanda (4)X  11:59 12:00+1112:00 12:02+111 2m--1116.44740mWRUttarsanda, Gujarat
20/==/KBRVKanjari Boriyavi Junction (4)X  12:08 12:09+1212:09 12:11+181 2m--1121.95639mWRKanjari, Gujarat
21/--/ANNDAnand Junction (6)  12:19+2312:22+233m11129.34144mWRAnand, Gujarat
22/==/VXDVadod (3)XO  12:31 12:32+2312:32 12:34+241 2m--1136.21944mWRAnand District, Gujarat
23/==/ADDAdas Road (4)X  12:46 12:47+1812:47 12:49+191 2m--1140.34642mWRNational Highway 8, Gujarat
24/==/VDAVasad Junction (3)XO  12:58 12:55+1912:59 12:56+211m--1144.94340mWRVasad, Gujarat
25/==/NDRNandesari (2)  13:06 13:03-13:07 13:04-1m--1149.93542mWRNandesari, Gujarat
26/==/RNORanoli (2)  13:14 13:11+2013:15 13:12+231m--1154.11439mWRVadodara District, Gujarat
27/==/BJWBajva (3)X  13:33 13:28+2013:34 13:29+221m--1157.91438mWRVadodara, Gujarat
28/==/BRCVadodara Junction (7)X  14:10 14:00+2314:20 14:10+2710m21165.13036mWRVadodara 390005, Gujarat
29/==/VSVishvamitri (4)X  14:26 14:16+3114:27 14:17+331m--1168.14930mWRVadodara, Gujarat
30/==/MPRMakarpura (4)  14:34 14:24+3414:35 14:25+341m--1173.86730mWRVadodara, Gujarat
31/==/VRMVarnama (2)  14:40 14:30+3614:41 14:31+381m--1179.43928mWRVadodara, Gujarat
32/==/ITAItola (4)  14:46 14:37+3914:47 14:38+411m--1183.35727mWRNational Highway 8 Vadodara, Gujarat
33/==/KSPRKashipura Sarar (2)  14:52 14:42+4414:53 14:43+451m--1187.12926mWRGIDC Industrial Area, Gujarat
34/==/MYGMiyagam Karjan (2)X  15:00 14:59+4115:01 15:00+421m11194.95329mWRKarjan, Gujarat
35/==/LKDLakodara (4)X  15:10 15:09+4215:11 15:10+431m--1202.92626mWRNH 8, Gujarat
36/==/PLJPalej (4)O  15:23 15:27+3915:24 15:28+391m--1210.22829mWRPalej, Gujarat
37/==/VREVarediya (4)X  15:37 15:42+3415:38 15:43+371m--1216.85121mWRNH 8, Gujarat
38/==/NIUNabipur (3)X  15:46 15:51+3715:47 15:52+381m--1223.64724mWRNabipur, Gujarat
39/==/CVJChavaj (2)  15:56 16:01+3615:57 16:02+371m--1230.62520mWRBharuch, Gujarat
40/==/BHBharuch Junction (5)XO  16:35 16:14+3216:40 16:19+335m41235.65119mWRBharuch, Gujarat
41/==/AKVAnkleshwar Junction (4)X  16:48 16:30+3616:49 16:31+391m21244.93919mWRAnkleshwar, Gujarat
42/==/PAOPanoli (3)X  17:05 16:47+3917:06 16:48+421m21255.31729mWRPanoli, Gujarat
43/==/HATHathuran (2)  17:24 17:02-17:25 17:03-1m21259.14432mWRKosamba, Gujarat
44/==/KSBKosamba Junction (3)X  17:31 17:09+3317:32 17:10+341m21263.54730mWRKosamba, Gujarat
45/==/KIMKim (2)X  17:43 17:20+3417:44 17:23+371 3m21271.33018mWRNH 8, Gujarat
46/==/SYNSayan (3)XO  18:05 17:43+3018:06 17:44+311m21281.23021mWRSayan Satellite town, Gujarat
47/==/GTXGothangam (2)  18:12 17:50+3118:13 17:51+341m21284.23719mWRAmroli Sayan Rd, Gujarat
48/==/KSEKosad (2)X  18:19 17:57+3418:20 17:58+351m21287.81417mWRSurat, Gujarat
49/==/URNUtran (3)XO  18:34 18:12+2918:35 18:17+271 5m21291.0715mWRSurat, Gujarat
50/==/STSurat (4)X  18:50+1218:55+135m31294.93419mWRSurat 395001, Gujarat
51/==/UDNUdhna Junction (3)  19:02+1719:03+181m21298.94816mWRUdhna 394210, Gujarat
52/==/BHETBhestan (2)X  19:09+1919:10+191m21303.75713mWRSurat, Gujarat
53/==/SCHSachin (3)X  19:16+2019:17+201m21309.46611mWRKansad Road Sachin, Gujarat
54/==/MRLMaroli (3)•X  19:23+2119:24+211m31316.05115mWRMaroli, Gujarat
55/==/NVSNavsari (3)X  19:34+1719:35+181m21324.55614mWRNavsari, Gujarat
56/==/VDHVedchha (3)X  19:44+1719:45+171m31332.93413mWRNavsari, Gujarat
57/==/ACLAncheli (2)X  19:50 19:51-19:51 19:52-1m21336.35720mWRNavsari, Gujarat
58/==/AMLAmalsad (3)X  19:56+1619:57+161m21340.15612mWRAmalsad, Gujarat
59/==/BIMBilimora Junction (4)XO  20:03+1820:04+221m21345.73411mWRBilimora, Gujarat
60/==/JRSJoravasan (2)X  20:10 20:11-20:11 20:12-1m21349.66115mWRJoravasan, Gujarat
61/==/DGIDungri (3)  20:17+2020:18+211m21354.72020mWRNH 8, Gujarat
62/==/BLValsad (3)  20:45+6-31363.6-15mWRValsad, Gujarat
Scroll to Top
Scroll to Bottom